Location: *
(51.8167°N, 12.5000°E)
Time: 18:42:48
(UTC+00:00)

Cosmos 1023 Rocket - Pass Details

Date: 16 September 2019
Orbit: 737 x 772 km, 74.1° (Epoch: 22 October)

Event Time Altitude Azimuth Distance (km) Brightness Sun altitude
Rises 19:04:44 0° 336° (NNW) 3,227 8.6 -15.9°
Reaches altitude 10° 19:07:09 10° 339° (NNW) 2,292 7.6 -16.2°
Maximum altitude 19:12:19 66° 62° (ENE) 819 4.5 -16.9°
Enters shadow 19:14:54 29° 136° (SE) 1,349 5.2 -17.3°
